Weather History for Durango, CO

Change the Weather History Date:

Monday, April 29, 2013

  Actual Average Record
Temperature  
Mean Temperature 55 °F 48 °F  
Max Temperature 78 °F 65 °F 78 °F (1981)
Min Temperature 31 °F 31 °F 18 °F (1970)
Degree Days  
Heating Degree Days 10 17  
Month to date heating degree days 592 591  
Since 1 July heating degree days 6731 6620  
Cooling Degree Days 0 0  
Month to date cooling degree days 0 0  
Year to date cooling degree days 0 0  
Growing Degree Days 5 (Base 50)    
Moisture  
Dew Point 18 °F    
Average Humidity 31    
Maximum Humidity 52    
Minimum Humidity 10    
Precipitation  
Precipitation 0.00 in 0.02 in 0.14 in (2004)
Month to date precipitation 0.67 1.07  
Year to date precipitation 3.28 4.60  
Sea Level Pressure  
Sea Level Pressure 29.77 in    
Wind  
Wind Speed 8 mph (WNW)    
Max Wind Speed 28 mph    
Max Gust Speed 37 mph    
Visibility 10 miles    
Events      
T = Trace of Precipitation, MM = Missing Value Source: NWS Daily Summary

Daily Weather History Graph

Daily Weather History Graph

Search for Another Location

Airport:

Trip Planner

Search our weather history database for the weather conditions in past years. The results will help you decide how hot, cold, wet, or windy it might be!

Date:

Astronomy

Apr. 29, 2013 Rise Set
Actual Time 6:18 AM MDT 7:58 PM MDT
Civil Twilight 5:50 AM MDT 8:26 PM MDT
Nautical Twilight 5:17 AM MDT 9:00 PM MDT
Astronomical Twilight 4:41 AM MDT 9:36 PM MDT
Moon No Moon Rise 9:44 AM MDT (4/29)
Length of Visible Light 14h 36m
Length of Day
13h 40m
Waning Gibbous, 79% of the Moon is Illuminated
Apr 29
Waning Gibbous
May 2
Last Quarter
May 9
New
May 17
First Quarter
May 24
Full

Hourly Weather History & Observations

Time (MDT) Temp. Windchill Dew Point Humidity Pressure Visibility Wind Dir Wind Speed Gust Speed Precip Events Conditions
12:53 AM 48.9 °F - 18.0 °F 29% 29.84 in 10.0 mi NW 4.6 mph - N/A   Clear
1:53 AM 46.0 °F - 17.1 °F 31% 29.84 in 10.0 mi Calm Calm - N/A   Clear
2:53 AM 44.1 °F - 19.0 °F 37% 29.84 in 10.0 mi Calm Calm - N/A   Clear
3:53 AM 41.0 °F 38.0 °F 19.0 °F 41% 29.85 in 10.0 mi North 4.6 mph - N/A   Clear
4:53 AM 37.9 °F 35.5 °F 19.0 °F 47% 29.85 in 10.0 mi NW 3.5 mph - N/A   Clear
5:53 AM 33.1 °F - 16.0 °F 50% 29.88 in 10.0 mi Calm Calm - N/A   Clear
6:53 AM 35.1 °F 32.2 °F 19.0 °F 52% 29.90 in 10.0 mi Variable 3.5 mph - N/A   Clear
7:53 AM 44.1 °F 41.5 °F 21.9 °F 42% 29.89 in 10.0 mi ENE 4.6 mph - N/A   Clear
8:53 AM 53.1 °F - 23.0 °F 31% 29.86 in 10.0 mi Calm Calm - N/A   Clear
9:53 AM 61.0 °F - 25.0 °F 25% 29.82 in 10.0 mi Calm Calm - N/A   Clear
10:53 AM 69.1 °F - 21.9 °F 17% 29.78 in 10.0 mi SW 10.4 mph 16.1 mph N/A   Clear
11:53 AM 72.0 °F - 21.9 °F 15% 29.78 in 10.0 mi Variable 5.8 mph 23.0 mph N/A   Clear
12:53 PM 75.9 °F - 19.9 °F 12% 29.73 in 10.0 mi WSW 24.2 mph 34.5 mph N/A   Clear
1:53 PM 75.9 °F - 19.9 °F 12% 29.72 in 10.0 mi West 17.3 mph 29.9 mph N/A   Clear
2:53 PM 75.9 °F - 19.9 °F 12% 29.71 in 10.0 mi WSW 19.6 mph 32.2 mph N/A   Clear
3:53 PM 77.0 °F - 17.1 °F 10% 29.70 in 10.0 mi West 23.0 mph 31.1 mph N/A   Clear
4:53 PM 75.9 °F - 16.0 °F 10% 29.70 in 10.0 mi WSW 17.3 mph 29.9 mph N/A   Clear
5:53 PM 73.9 °F - 15.1 °F 11% 29.72 in 10.0 mi WNW 19.6 mph 27.6 mph N/A   Clear
6:53 PM 73.0 °F - 17.1 °F 12% 29.71 in 10.0 mi WNW 16.1 mph - N/A   Clear
7:53 PM 68.0 °F - 12.9 °F 12% 29.70 in 10.0 mi West 12.7 mph - N/A   Clear
8:53 PM 64.9 °F - 10.9 °F 12% 29.68 in 10.0 mi West 10.4 mph - N/A   Clear
9:53 PM 59.0 °F - 12.0 °F 16% 29.68 in 10.0 mi Calm Calm - N/A   Clear
10:53 PM 53.1 °F - 16.0 °F 23% 29.66 in 10.0 mi North 5.8 mph - N/A   Clear
11:53 PM 46.0 °F - 16.0 °F 30% 29.67 in 10.0 mi Calm Calm - N/A   Clear